Altus, OK

5:20 AM CST on December 15, 2017 (GMT -0600)
Altus Municipal

Weather History for KAXS - April, 2013

Change the Weather History Date:

Monday, April 22, 2013

  Actual Average (KLTS) Record (KLTS)
Temperature  
Mean Temperature 68 °F -  
Max Temperature 85 °F 73 °F 95 °F (2009)
Min Temperature 51 °F 49 °F 44 °F (1998)
Cooling Degree Days 3    
Growing Degree Days 18 (Base 50)    
Moisture  
Dew Point 52 °F    
Average Humidity 61    
Maximum Humidity 82    
Minimum Humidity 30    
Precipitation  
Precipitation 0.00 in - - ()
Sea Level Pressure  
Sea Level Pressure 29.89 in    
Wind  
Wind Speed 16 mph (SE)    
Max Wind Speed 28 mph    
Max Gust Speed 32 mph    
Visibility 10 miles    
Events      
Averages and records for this station are not official NWS values.
T = Trace of Precipitation, MM = Missing Value Source: NWS Daily Summary

Daily Weather History Graph

Daily Weather History Graph

Search for Another Location

Airport or City:

Trip Planner

Search our weather history database for the weather conditions in past years. The results will help you decide how hot, cold, wet, or windy it might be!

Date:

Astronomy

Apr. 22, 2013 Rise Set
Actual Time 6:56 AM CDT 8:15 PM CDT
Civil Twilight 6:30 AM CDT 8:41 PM CDT
Nautical Twilight 5:58 AM CDT 9:13 PM CDT
Astronomical Twilight 5:26 AM CDT 9:46 PM CDT
Moon 5:12 PM CDT (4/22) 4:44 AM CDT (4/22)
Length of Visible Light 14h 11m
Length of Day
13h 18m
Waxing Gibbous, 88% of the Moon is Illuminated
Apr 22
Waxing Gibbous
Apr 25
Full
May 2
Last Quarter
May 9
New
May 17
First Quarter

Hourly Weather History & Observations

Time (CDT) Temp. Heat Index Dew Point Humidity Pressure Visibility Wind Dir Wind Speed Gust Speed Precip Events Conditions
12:15 AM 57.6 °F - 48.6 °F 72% 30.08 in 10.0 mi SE 15.0 mph - N/A   Clear
12:35 AM 57.2 °F - 48.4 °F 72% 30.07 in 10.0 mi SE 13.8 mph - N/A   Clear
12:55 AM 56.5 °F - 48.4 °F 74% 30.07 in 10.0 mi SE 15.0 mph - N/A   Clear
1:15 AM 55.9 °F - 48.2 °F 75% 30.07 in 10.0 mi SE 12.7 mph - N/A   Clear
1:35 AM 55.4 °F - 48.2 °F 77% 30.07 in 10.0 mi ESE 11.5 mph - N/A   Clear
1:55 AM 55.4 °F - 48.4 °F 77% 30.06 in 10.0 mi SE 12.7 mph - N/A   Clear
2:15 AM 55.4 °F - 48.2 °F 77% 30.05 in 10.0 mi SE 13.8 mph - N/A   Clear
2:35 AM 54.5 °F - 48.2 °F 79% 30.04 in 10.0 mi SE 11.5 mph - N/A   Clear
2:55 AM 54.5 °F - 48.0 °F 79% 30.04 in 10.0 mi SE 13.8 mph - N/A   Clear
3:15 AM 54.5 °F - 48.0 °F 79% 30.03 in 10.0 mi ESE 12.7 mph - N/A   Clear
3:35 AM 53.6 °F - 47.7 °F 80% 30.03 in 10.0 mi SE 13.8 mph - N/A   Clear
3:55 AM 53.1 °F - 47.7 °F 82% 30.02 in 10.0 mi ESE 11.5 mph - N/A   Clear
4:15 AM 52.9 °F - 47.5 °F 82% 30.02 in 10.0 mi SE 13.8 mph - N/A   Clear
4:55 AM 53.1 °F - 47.3 °F 81% 30.01 in 10.0 mi ESE 13.8 mph - N/A   Clear
5:15 AM 52.7 °F - 47.3 °F 82% 30.00 in 10.0 mi SE 12.7 mph 18.4 mph N/A   Clear
5:35 AM 52.9 °F - 46.9 °F 80% 29.99 in 10.0 mi SE 15.0 mph - N/A   Clear
5:55 AM 53.1 °F - 46.8 °F 79% 29.99 in 10.0 mi SE 15.0 mph - N/A   Clear
6:15 AM 52.7 °F - 46.8 °F 80% 30.00 in 10.0 mi SE 11.5 mph - N/A   Clear
6:35 AM 52.2 °F - 46.6 °F 81% 30.00 in 10.0 mi ESE 11.5 mph - N/A   Clear
6:55 AM 51.8 °F - 46.6 °F 82% 30.00 in 10.0 mi SE 11.5 mph - N/A   Clear
7:15 AM 52.2 °F - 46.8 °F 82% 30.00 in 10.0 mi SE 13.8 mph - N/A   Clear
7:35 AM 52.0 °F - 46.8 °F 82% 30.00 in 10.0 mi SE 12.7 mph - N/A   Clear
7:55 AM 52.7 °F - 47.1 °F 81% 29.99 in 10.0 mi SE 13.8 mph - N/A   Clear
8:15 AM 54.0 °F - 47.5 °F 79% 30.00 in 10.0 mi SE 13.8 mph - N/A   Clear
8:35 AM 55.8 °F - 48.4 °F 76% 29.99 in 10.0 mi SSE 15.0 mph - N/A   Scattered Clouds
8:55 AM 57.0 °F - 49.5 °F 76% 29.99 in 10.0 mi SSE 17.3 mph - N/A   Scattered Clouds
9:15 AM 58.3 °F - 50.5 °F 75% 29.99 in 10.0 mi SSE 18.4 mph 21.9 mph N/A   Mostly Cloudy
9:35 AM 59.9 °F - 51.8 °F 75% 29.98 in 10.0 mi SSE 18.4 mph 23.0 mph N/A   Overcast
9:55 AM 60.8 °F - 52.5 °F 74% 29.97 in 10.0 mi SSE 18.4 mph - N/A   Overcast
10:15 AM 61.9 °F - 53.4 °F 74% 29.97 in 10.0 mi SSE 19.6 mph 23.0 mph N/A   Overcast
10:35 AM 63.0 °F - 54.0 °F 72% 29.97 in 10.0 mi SSE 18.4 mph 23.0 mph N/A   Overcast
10:55 AM 64.4 °F - 54.7 °F 71% 29.97 in 10.0 mi SSE 19.6 mph 23.0 mph N/A   Overcast
11:15 AM 66.2 °F - 55.2 °F 68% 29.96 in 10.0 mi South 18.4 mph 27.6 mph N/A   Overcast
11:35 AM 67.6 °F - 55.4 °F 65% 29.95 in 10.0 mi South 23.0 mph 29.9 mph N/A   Mostly Cloudy
11:55 AM 70.0 °F - 55.9 °F 61% 29.94 in 10.0 mi South 20.7 mph 27.6 mph N/A   Mostly Cloudy
12:15 PM 73.0 °F - 55.8 °F 55% 29.94 in 10.0 mi South 20.7 mph 27.6 mph N/A   Mostly Cloudy
12:35 PM 73.2 °F - 55.6 °F 54% 29.93 in 10.0 mi South 19.6 mph 29.9 mph N/A   Mostly Cloudy
12:55 PM 75.2 °F - 55.4 °F 50% 29.92 in 10.0 mi South 15.0 mph 28.8 mph N/A   Scattered Clouds
1:15 PM 77.0 °F - 55.4 °F 47% 29.90 in 10.0 mi South 19.6 mph - N/A   Scattered Clouds
1:35 PM 77.0 °F - 54.7 °F 46% 29.89 in 10.0 mi South 18.4 mph 27.6 mph N/A   Scattered Clouds
1:55 PM 78.1 °F - 54.7 °F 44% 29.87 in 10.0 mi South 20.7 mph 29.9 mph N/A   Scattered Clouds
2:15 PM 79.2 °F - 55.2 °F 44% 29.86 in 10.0 mi SSE 20.7 mph 28.8 mph N/A   Scattered Clouds
2:35 PM 80.4 °F 80.1 °F 53.2 °F 39% 29.85 in 10.0 mi South 19.6 mph - N/A   Clear
2:55 PM 81.9 °F 81.0 °F 53.1 °F 37% 29.84 in 10.0 mi South 17.3 mph 25.3 mph N/A   Clear
3:15 PM 82.4 °F - 52.9 °F 36% 29.83 in 10.0 mi South 20.7 mph 26.5 mph N/A   Clear
3:35 PM 83.1 °F - 51.8 °F 34% 29.82 in 10.0 mi South 19.6 mph 25.3 mph N/A   Clear
3:55 PM 84.4 °F - 51.4 °F 32% 29.81 in 10.0 mi South 20.7 mph 26.5 mph N/A   Clear
4:15 PM 84.7 °F - 51.6 °F 32% 29.79 in 10.0 mi SSE 18.4 mph 28.8 mph N/A   Clear
4:35 PM 84.9 °F - 50.9 °F 31% 29.77 in 10.0 mi SSE 20.7 mph 24.2 mph N/A   Clear
4:55 PM 85.5 °F - 50.7 °F 30% 29.76 in 10.0 mi South 19.6 mph 24.2 mph N/A   Clear
5:15 PM 85.3 °F - 52.2 °F 32% 29.75 in 10.0 mi SSE 18.4 mph 23.0 mph N/A   Clear
5:35 PM 85.3 °F - 51.8 °F 31% 29.74 in 10.0 mi SSE 21.9 mph 26.5 mph N/A   Clear
5:55 PM 85.5 °F - 52.2 °F 32% 29.73 in 10.0 mi SSE 21.9 mph 31.1 mph N/A   Clear
6:15 PM 84.4 °F 82.9 °F 54.1 °F 35% 29.72 in 10.0 mi SE 21.9 mph 31.1 mph N/A   Clear
6:35 PM 82.9 °F 82.0 °F 54.9 °F 38% 29.72 in 10.0 mi SE 24.2 mph 29.9 mph N/A   Clear
6:55 PM 81.5 °F 81.0 °F 55.2 °F 40% 29.71 in 10.0 mi SE 24.2 mph 32.2 mph N/A   Clear
7:15 PM 80.4 °F 80.4 °F 55.4 °F 42% 29.71 in 10.0 mi SE 24.2 mph 32.2 mph N/A   Clear
7:35 PM 79.0 °F - 54.9 °F 43% 29.70 in 10.0 mi SE 23.0 mph 31.1 mph N/A   Clear
7:55 PM 77.9 °F - 54.5 °F 44% 29.70 in 10.0 mi SE 27.6 mph 32.2 mph N/A   Clear
8:15 PM 76.5 °F - 54.7 °F 47% 29.70 in 10.0 mi SE 23.0 mph 32.2 mph N/A   Clear
8:35 PM 75.7 °F - 54.5 °F 48% 29.70 in 10.0 mi SE 19.6 mph 27.6 mph N/A   Clear
8:55 PM 74.7 °F - 54.5 °F 49% 29.70 in 10.0 mi SE 15.0 mph - N/A   Clear
9:15 PM 73.2 °F - 54.3 °F 51% 29.70 in 10.0 mi SE 17.3 mph - N/A   Clear
9:35 PM 73.2 °F - 54.5 °F 52% 29.71 in 10.0 mi SE 17.3 mph - N/A   Clear
9:55 PM 70.9 °F - 54.5 °F 56% 29.72 in 10.0 mi SE 17.3 mph 21.9 mph N/A   Clear
10:15 PM 71.8 °F - 54.7 °F 55% 29.72 in 10.0 mi SE 20.7 mph 25.3 mph N/A   Clear
10:35 PM 71.8 °F - 54.7 °F 55% 29.72 in 10.0 mi SE 17.3 mph 24.2 mph N/A   Clear
10:55 PM 70.2 °F - 54.9 °F 58% 29.73 in 10.0 mi SE 15.0 mph - N/A   Clear
11:15 PM 68.9 °F - 54.9 °F 61% 29.73 in 10.0 mi ESE 12.7 mph - N/A   Clear
11:35 PM 67.3 °F - 54.7 °F 64% 29.73 in 10.0 mi ESE 13.8 mph - N/A   Clear
11:55 PM 64.9 °F - 55.6 °F 72% 29.78 in 10.0 mi North 20.7 mph 25.3 mph N/A   Clear